Location: Unspecified
(54.1780°N, 0.0000°E)
Time: 20:27:40
(UTC+00:00)

S-56A Canister/Altair - Pass Details

Date: 07 October 2020
Orbit: 632 x 2500 km, 38.9° (Epoch: 20 October)

Event Time Altitude Azimuth Distance (km) Brightness Sun altitude
Rises 18:36:11 0° 277° (W) 6,177 14.4 -11.9°
Reaches altitude 10° 18:42:46 10° 258° (WSW) 5,055 12.9 -12.8°
Maximum altitude 18:49:35 15° 230° (SW) 4,373 11.9 -13.8°
Drops below altitude 10° 18:55:46 10° 200° (SSW) 4,470 11.5 -14.7°
Sets 19:01:00 0° 179° (S) 5,105 11.6 -15.5°
